Вернуться в каталог

FENGYUN 1C DEB

АктивенSSO
NORAD 31810·DEBRIS·🇨🇳 China

Запущен May 10, 1999 с Taiyuan Satellite Launch Center

Loading…

Ближайшие Пролёты (ближайшие 24 часа)

TLE

СвежийSource: Space-Track

Эпоха: Sep 14, 2026, 18:42 UTC

1 31810U 99025CGY 26257.77956090  .00002308  00000-0  48946-3 0  9990
2 31810  98.2591 271.6366 0210114  19.0789 341.8125 14.47251675684052

Отслеживайте FENGYUN 1C DEB в реальном времени с AllMySat

Download on the App Store